Location: Unspecified
(51.3762°N, 0.0000°E)
Time: 06:37:58
(UTC+00:00)

Max Valier Satellite - Visible Passes

Search period start: 16 July 2019 00:00
Search period end: 26 July 2019 00:00
Orbit: 490 x 509 km, 97.4° (Epoch: 15 July)

Date Brightness Start Highest point End Pass type
(mag) Time Alt. Az. Time Alt. Az. Time Alt. Az.
16 Jul ? 20:54:31 10° S 20:58:09 64° WSW 21:01:49 10° NNW visible
17 Jul ? 22:11:40 10° WSW 22:12:39 11° W 22:13:38 10° WNW visible
18 Jul ? 21:50:12 10° SW 21:52:41 17° W 21:55:10 10° NW visible
19 Jul ? 21:29:37 10° SSW 21:32:46 27° W 21:35:56 10° NW visible
20 Jul ? 21:09:25 10° S 21:12:55 43° W 21:16:26 10° NNW visible
21 Jul ? 20:49:28 10° S 20:53:06 73° WSW 20:56:46 10° NNW visible
22 Jul ? 22:06:01 10° WSW 22:07:33 12° W 22:09:03 10° WNW visible
23 Jul ? 21:44:55 10° SW 21:47:35 19° W 21:50:15 10° NW visible
24 Jul ? 21:24:25 10° SSW 21:27:40 30° W 21:30:56 10° NNW visible
25 Jul ? 21:04:17 10° S 21:07:49 49° W 21:11:23 10° NNW visible
